Showing default

LEMUR-2 DELOITTE-2, 68491

Orbit data source: Space-Track

LEMUR-2 DELOITTE-2, 68491 is an American payload satellite in SSO that was launched on Mon, 30 Mar 2026 UTC via an FALCON 9 launch vehicle from the Air Force Western Test Range (AFWTR). Payload-class satellites include a variety of spacecraft equipped with specific instruments for various scientific and technological missions. These include communications satellites like Starlink; space stations such as the ISS; scientific satellites like the Hubble; Earth observation satellites from companies like Planet Labs, Umbra, and HawkEye 360; GPS; miniature CubeSats for education and research; and military/defense satellites.

Loading next visibility...
Identifier
68491, 2026-067CD
Orbit
SSO
Country
Flag of USUS
Related business
None
Manufacturer
Unknown
Mission
Operational spacecraft
Bus & Motor
Unknown
Mass
Unknown
Launch date (UTC)
2026-03-30 (1 month ago)
Launch vehicle
FALCON 9
Launch site
Air Force Western Test Range (AFWTR)
Object type
Payload
Rocket body
Debris
Shape & HBR
Unknown shape, 1.1 m
Radar Cross Section
RCS unknown

Expand to show TLE details & history
Last TLE update: 14 hours ago

TLE from 14 hours ago
0 LEMUR-2 DELOITTE-2
1 68491U 26067CD  26127.14630705  .00003573  00000-0  36468-3 0  9991
2 68491  97.7543  85.9950 0003229 158.5091 201.6264 14.91250893  5600
Epoch: 2026-05-07T03:30Z
TLE epoch observation values (Epoch: 2026-05-07T03:30:40.929Z)
Latitude
0.00004°
Longitude
168.32782°
Altitude
599.169 km
Speed
7.559 km/s
True Right ascension
05h 43m 58s
True Declination
0° 00' 00"
Sunlit
Object was in daylight at epoch
Visualization orbit readout
Latitude
Unknown
Longitude
Unknown
Altitude
Unknown
Speed
Unknown
Apparent Right ascension
Unknown
Apparent Declination
Unknown
Sunlit
N/A
Visualization observer readout
Local Sidereal Time
01:03:26
Azimuth
Unknown
Elevation
Unknown
Doppler factor
Unknown
Orbital elements
Apogee altitude
593.304 km
Perigee altitude
588.803 km
Semi-major axis
6,969.19 km
Eccentricity
0.00032
Inclination
97.7543°
RAAN
85.995°
Arg. of periapsis
158.5091°
True anomaly
201.61277°
Mean anomaly
201.6264°
Eccentric anomaly
201.61958°
Mean motion
3.73052 °/min
Orbital period
96.5 mins
BSTAR
0.00036468
Loading maneuver chart data...
Computing Atmospheric mass density...
Loading historical data...
Loading historical data...
Loading historical data...
Loading historical data...
Loading historical data...
Loading historical data...
Loading historical data...

Documentation

Showing up to 5 results
|